time, Switch, Flow(0), Analog(2)
yyyy/mm/dd HH:MM:SS.fff, True=FILTERED|False=TOTAL, L/min, V
2023/06/15 08:00:02.327, True, 4.717, 0.140230
2023/06/15 08:00:02.831, True, 4.644, 0.141756
2023/06/15 08:00:03.335, True, 4.648, 0.138705
2023/06/15 08:00:03.831, True, 4.037, 0.142061
2023/06/15 08:00:04.335, True, 2.321, 0.142138
2023/06/15 08:00:04.838, True, 1.658, 0.139162
2023/06/15 08:00:05.335, True, 0.674, 0.141222
2023/06/15 08:00:05.839, True, 0.664, 0.140230
2023/06/15 08:00:06.343, True, 0.663, 0.139239
2023/06/15 08:00:06.839, True, 0.674, 0.142061
2023/06/15 08:00:07.343, True, 0.332, 0.139391
2023/06/15 08:00:07.846, True, 0.664, 0.141680
2023/06/15 08:00:08.343, True, 0.673, 0.139010
2023/06/15 08:00:08.847, True, 0.332, 0.138857
2023/06/15 08:00:09.343, True, 0.674, 0.141451
2023/06/15 08:00:09.847, True, 0.663, 0.139391
2023/06/15 08:00:10.350, True, 0.332, 0.139620
2023/06/15 08:00:10.855, True, 0.663, 0.139315
2023/06/15 08:00:11.351, True, 0.337, 0.140917
2023/06/15 08:00:11.855, True, 0.663, 0.139086
2023/06/15 08:00:12.359, True, 0.332, 0.138018
2023/06/15 08:00:12.863, True, 0.663, 0.139467
2023/06/15 08:00:13.358, True, 0.337, 0.141985
2023/06/15 08:00:13.863, True, 0.663, 0.140078
2023/06/15 08:00:14.367, True, 0.332, 0.142367
2023/06/15 08:00:14.863, True, 0.674, 0.138170
2023/06/15 08:00:15.367, True, 0.663, 0.141451
2023/06/15 08:00:15.871, True, 0.332, 0.140993
2023/06/15 08:00:16.367, True, 0.674, 0.141909
2023/06/15 08:00:16.870, True, 0.332, 0.140307
2023/06/15 08:00:17.375, True, 0.663, 0.140917
2023/06/15 08:00:17.871, True, 0.337, 0.141146
2023/06/15 08:00:18.375, True, 0.663, 0.141451
2023/06/15 08:00:18.879, True, 0.332, 0.141451
2023/06/15 08:00:19.383, True, 0.663, 0.141070
2023/06/15 08:00:19.879, True, 0.337, 0.140917
2023/06/15 08:00:20.383, True, 0.663, 0.140536
2023/06/15 08:00:20.887, True, 0.332, 0.140078
2023/06/15 08:00:21.382, True, 0.674, 0.140230
2023/06/15 08:00:21.887, True, 0.663, 0.141909
2023/06/15 08:00:22.391, True, 0.332, 0.141375
2023/06/15 08:00:22.895, True, 0.663, 0.141222
2023/06/15 08:00:23.390, True, 0.337, 0.141451
2023/06/15 08:00:23.895, True, 0.663, 0.140841
2023/06/15 08:00:24.399, True, 0.332, 0.139849
2023/06/15 08:00:24.895, True, 0.674, 0.139315
2023/06/15 08:00:25.399, True, 0.663, 0.142290
2023/06/15 08:00:25.903, True, 0.332, 0.139010
2023/06/15 08:00:26.398, True, 0.673, 0.141604
2023/06/15 08:00:26.903, True, 0.332, 0.140459
2023/06/15 08:00:27.407, True, 0.332, 0.140917
2023/06/15 08:00:27.911, True, 0.663, 0.141756
2023/06/15 08:00:28.407, True, 0.674, 0.139467
2023/06/15 08:00:28.910, True, 0.332, 0.138857
2023/06/15 08:00:29.415, True, 0.663, 0.141985
2023/06/15 08:00:29.911, True, 0.337, 0.138399
2023/06/15 08:00:30.415, True, 0.663, 0.141756
2023/06/15 08:00:30.911, True, 0.337, 0.141299
2023/06/15 08:00:31.415, True, 0.663, 0.142214
2023/06/15 08:00:31.919, True, 0.332, 0.141680
2023/06/15 08:00:32.415, True, 0.674, 0.140841
2023/06/15 08:00:32.919, True, 0.332, 0.140536
2023/06/15 08:00:33.422, True, 0.664, 0.140917
2023/06/15 08:00:33.918, True, 0.337, 0.141451
2023/06/15 08:00:34.422, True, 0.663, 0.139315
2023/06/15 08:00:34.926, True, 0.331, 0.141909
2023/06/15 08:00:35.431, True, 0.663, 0.139544
2023/06/15 08:00:35.926, True, 0.337, 0.140688
2023/06/15 08:00:36.430, True, 0.662, 0.138857
2023/06/15 08:00:36.934, True, 0.332, 0.142290
2023/06/15 08:00:37.430, True, 0.674, 0.139010
2023/06/15 08:00:37.934, True, 0.332, 0.141680
2023/06/15 08:00:38.438, True, 0.663, 0.141985
2023/06/15 08:00:38.934, True, 0.674, 0.140841
2023/06/15 08:00:39.438, True, 0.332, 0.139696
2023/06/15 08:00:39.943, True, 0.664, 0.139696
2023/06/15 08:00:40.439, True, 0.337, 0.140459
2023/06/15 08:00:40.943, True, 0.663, 0.141070
2023/06/15 08:00:41.447, True, 0.332, 0.138018
2023/06/15 08:00:41.942, True, 0.674, 0.140612
2023/06/15 08:00:42.446, True, 0.331, 0.141527
2023/06/15 08:00:42.951, True, 0.664, 0.139239
2023/06/15 08:00:43.447, True, 0.337, 0.141985
2023/06/15 08:00:43.950, True, 0.662, 0.139544
2023/06/15 08:00:44.454, True, 0.332, 0.140002
2023/06/15 08:00:44.950, True, 0.674, 0.140536
2023/06/15 08:00:45.455, True, 0.331, 0.138857
2023/06/15 08:00:45.959, True, 0.662, 0.141604
2023/06/15 08:00:46.454, True, 0.338, 0.140688
2023/06/15 08:00:46.958, True, 0.663, 0.139086
2023/06/15 08:00:47.462, True, 0.331, 0.139925
2023/06/15 08:00:47.958, True, 0.674, 0.138247
2023/06/15 08:00:48.463, True, 0.332, 0.140841
2023/06/15 08:00:48.967, True, 0.663, 0.141451
2023/06/15 08:00:49.470, True, 0.663, 0.139620
2023/06/15 08:00:49.966, True, 0.337, 0.140764
2023/06/15 08:00:50.470, True, 0.332, 0.142367
2023/06/15 08:00:50.975, True, 0.663, 0.140917
2023/06/15 08:00:51.471, True, 0.337, 0.140459
2023/06/15 08:00:51.974, True, 0.663, 0.140536
2023/06/15 08:00:52.479, True, 0.663, 0.141833
2023/06/15 08:00:52.975, True, 0.337, 0.142367
2023/06/15 08:00:53.479, True, 0.663, 0.141299
2023/06/15 08:00:53.983, True, 0.331, 0.141451
2023/06/15 08:00:54.487, True, 0.664, 0.140459
2023/06/15 08:00:54.983, True, 0.337, 0.140459
2023/06/15 08:00:55.487, True, 0.664, 0.142824
2023/06/15 08:00:55.991, True, 0.331, 0.139315
2023/06/15 08:00:56.487, True, 0.674, 0.141756
2023/06/15 08:00:56.990, True, 0.332, 0.140459
2023/06/15 08:00:57.495, True, 0.663, 0.140459
2023/06/15 08:00:57.991, True, 0.337, 0.142901
2023/06/15 08:00:58.495, True, 0.663, 0.142443
2023/06/15 08:00:58.999, True, 0.332, 0.141527
2023/06/15 08:00:59.495, True, 0.674, 0.141222
2023/06/15 08:00:59.999, True, 0.332, 0.140688
2023/06/15 08:01:00.495, True, 0.674, 0.141604
2023/06/15 08:01:00.999, True, 0.332, 0.139315
2023/06/15 08:01:01.503, True, 0.663, 0.141985
2023/06/15 08:01:01.999, True, 0.674, 0.140230
2023/06/15 08:01:02.503, True, 0.332, 0.142061
2023/06/15 08:01:03.007, True, 0.332, 0.140841
2023/06/15 08:01:03.503, True, 0.674, 0.139239
2023/06/15 08:01:04.006, True, 0.332, 0.139620
2023/06/15 08:01:04.511, True, 0.663, 0.140230
2023/06/15 08:01:05.007, True, 0.337, 0.141756
2023/06/15 08:01:05.511, True, 0.663, 0.140917
2023/06/15 08:01:06.015, True, 0.332, 0.139925
2023/06/15 08:01:06.511, True, 0.674, 0.140307
2023/06/15 08:01:07.015, True, 0.332, 0.139467
2023/06/15 08:01:07.519, True, 0.664, 0.140612
2023/06/15 08:01:08.015, True, 0.336, 0.139239
2023/06/15 08:01:08.519, True, 0.663, 0.140688
2023/06/15 08:01:09.023, True, 0.332, 0.139544
2023/06/15 08:01:09.519, True, 0.674, 0.140307
2023/06/15 08:01:10.023, True, 0.332, 0.141985
2023/06/15 08:01:10.527, True, 0.663, 0.139544
2023/06/15 08:01:11.023, True, 0.337, 0.142596
2023/06/15 08:01:11.527, True, 0.663, 0.140230
2023/06/15 08:01:12.031, True, 0.332, 0.140688
2023/06/15 08:01:12.527, True, 0.674, 0.141451
2023/06/15 08:01:13.030, True, 0.332, 0.141833
2023/06/15 08:01:13.535, True, 0.662, 0.141833
2023/06/15 08:01:14.031, True, 0.337, 0.138933
2023/06/15 08:01:14.534, True, 0.663, 0.140383
2023/06/15 08:01:15.039, True, 0.332, 0.139849
2023/06/15 08:01:15.535, True, 0.337, 0.140002
2023/06/15 08:01:16.039, True, 0.663, 0.140536
2023/06/15 08:01:16.543, True, 0.332, 0.140154
2023/06/15 08:01:17.039, True, 0.674, 0.142214
2023/06/15 08:01:17.543, True, 0.332, 0.138094
2023/06/15 08:01:18.047, True, 0.663, 0.141833
2023/06/15 08:01:18.543, True, 0.337, 0.140764
2023/06/15 08:01:19.047, True, 0.663, 0.140841
2023/06/15 08:01:19.550, True, 0.332, 0.138705
2023/06/15 08:01:20.046, True, 0.674, 0.141299
2023/06/15 08:01:20.551, True, 0.332, 0.141451
2023/06/15 08:01:21.055, True, 0.332, 0.140612
2023/06/15 08:01:21.551, True, 0.674, 0.143359
2023/06/15 08:01:22.054, True, 0.663, 0.140230
2023/06/15 08:01:22.559, True, 0.332, 0.140078
2023/06/15 08:01:23.062, True, 0.663, 0.140688
2023/06/15 08:01:23.558, True, 0.337, 0.140688
2023/06/15 08:01:24.063, True, 0.332, 0.142977
2023/06/15 08:01:24.559, True, 0.674, 0.140612
2023/06/15 08:01:25.062, True, 0.332, 0.140459
2023/06/15 08:01:25.567, True, 0.663, 0.140154
2023/06/15 08:01:26.063, True, 0.337, 0.140078
2023/06/15 08:01:26.566, True, 0.663, 0.139467
2023/06/15 08:01:27.070, True, 0.332, 0.139162
2023/06/15 08:01:27.567, True, 0.673, 0.141299
2023/06/15 08:01:28.070, True, 0.332, 0.144503
2023/06/15 08:01:28.575, True, 0.663, 0.143816
2023/06/15 08:01:29.071, True, 0.337, 0.144427
2023/06/15 08:01:29.574, True, 0.663, 0.143435
2023/06/15 08:01:30.078, True, 0.332, 0.141680
2023/06/15 08:01:30.575, True, 0.337, 0.140688
2023/06/15 08:01:31.078, True, 0.663, 0.142061
2023/06/15 08:01:31.583, True, 0.332, 0.140307
2023/06/15 08:01:32.079, True, 0.674, 0.139849
2023/06/15 08:01:32.582, True, 0.331, 0.141833
2023/06/15 08:01:33.087, True, 0.663, 0.138781
2023/06/15 08:01:33.582, True, 0.337, 0.140917
2023/06/15 08:01:34.087, True, 0.662, 0.141833
2023/06/15 08:01:34.591, True, 0.332, 0.140764
2023/06/15 08:01:35.087, True, 0.674, 0.141146
2023/06/15 08:01:35.591, True, 0.332, 0.141451
2023/06/15 08:01:36.094, True, 0.332, 0.140307
2023/06/15 08:01:36.591, True, 0.674, 0.140841
2023/06/15 08:01:37.095, True, 0.332, 0.139696
2023/06/15 08:01:37.598, True, 0.663, 0.140078
2023/06/15 08:01:38.095, True, 0.337, 0.139696
2023/06/15 08:01:38.598, True, 0.332, 0.140536
2023/06/15 08:01:39.103, True, 0.663, 0.142061
2023/06/15 08:01:39.599, True, 0.337, 0.143206
2023/06/15 08:01:40.102, True, 0.664, 0.141299
2023/06/15 08:01:40.599, True, 0.337, 0.140841
2023/06/15 08:01:41.102, True, 0.663, 0.140612
2023/06/15 08:01:41.607, True, 0.332, 0.140688
2023/06/15 08:01:42.110, True, 0.663, 0.141604
2023/06/15 08:01:42.606, True, 0.337, 0.140917
2023/06/15 08:01:43.111, True, 0.332, 0.142290
2023/06/15 08:01:43.606, True, 0.674, 0.142290
2023/06/15 08:01:44.110, True, 0.332, 0.142214
2023/06/15 08:01:44.615, True, 0.332, 0.141680
2023/06/15 08:01:45.119, True, 0.664, 0.142367
2023/06/15 08:01:45.614, True, 0.337, 0.142367
2023/06/15 08:01:46.119, True, 0.663, 0.141451
2023/06/15 08:01:46.623, True, 0.332, 0.145113
2023/06/15 08:01:47.118, True, 0.674, 0.147631
2023/06/15 08:01:47.622, True, 0.332, 0.145495
2023/06/15 08:01:48.126, True, 0.332, 0.146868
2023/06/15 08:01:48.622, True, 0.674, 0.144503
2023/06/15 08:01:49.127, True, 0.332, 0.147021
2023/06/15 08:01:49.623, True, 0.673, 0.144350
2023/06/15 08:01:50.127, True, 0.332, 0.142672
2023/06/15 08:01:50.630, True, 0.332, 0.141833
2023/06/15 08:01:51.127, True, 0.673, 0.140307
2023/06/15 08:01:51.630, True, 0.332, 0.143053
2023/06/15 08:01:52.135, True, 0.662, 0.143130
2023/06/15 08:01:52.630, True, 0.337, 0.144579
2023/06/15 08:01:53.135, True, 0.332, 0.142824
2023/06/15 08:01:53.638, True, 0.663, 0.143969
2023/06/15 08:01:54.135, True, 0.337, 0.145037
2023/06/15 08:01:54.639, True, 0.663, 0.143587
2023/06/15 08:01:55.143, True, 0.332, 0.143435
2023/06/15 08:01:55.638, True, 0.337, 0.144884
2023/06/15 08:01:56.143, True, 0.663, 0.144121
2023/06/15 08:01:56.646, True, 0.332, 0.146639
2023/06/15 08:01:57.142, True, 0.674, 0.146334
2023/06/15 08:01:57.646, True, 0.332, 0.143969
2023/06/15 08:01:58.151, True, 0.332, 0.145266
2023/06/15 08:01:58.646, True, 0.674, 0.142290
2023/06/15 08:01:59.151, True, 0.332, 0.146334
2023/06/15 08:01:59.654, True, 0.664, 0.145876
2023/06/15 08:02:00.150, True, 0.337, 0.144274
2023/06/15 08:02:00.655, True, 0.663, 0.144884
2023/06/15 08:02:01.158, True, 0.331, 0.148165
2023/06/15 08:02:01.654, True, 0.337, 0.146563
2023/06/15 08:02:02.159, True, 0.663, 0.145953
2023/06/15 08:02:02.662, True, 0.332, 0.145724
2023/06/15 08:02:03.167, True, 0.663, 0.145266
2023/06/15 08:02:03.662, True, 0.337, 0.145953
2023/06/15 08:02:04.166, True, 0.664, 0.146334
2023/06/15 08:02:04.670, True, 0.331, 0.145418
2023/06/15 08:02:05.167, True, 0.337, 0.147784
2023/06/15 08:02:05.670, True, 0.663, 0.148775
2023/06/15 08:02:06.174, True, 0.332, 0.146715
2023/06/15 08:02:06.670, True, 0.674, 0.148547
2023/06/15 08:02:07.174, True, 0.332, 0.146181
2023/06/15 08:02:07.678, True, 0.665, 0.148089
2023/06/15 08:02:08.174, True, 0.336, 0.148547
2023/06/15 08:02:08.678, True, 0.663, 0.148928
2023/06/15 08:02:09.182, True, 0.332, 0.148165
2023/06/15 08:02:09.677, True, 0.337, 0.149310
2023/06/15 08:02:10.182, True, 0.663, 0.146944
2023/06/15 08:02:10.687, True, 0.332, 0.150072
2023/06/15 08:02:11.181, True, 0.673, 0.149157
2023/06/15 08:02:11.686, True, 0.332, 0.148165
2023/06/15 08:02:12.190, True, 0.663, 0.150149
2023/06/15 08:02:12.686, True, 0.338, 0.151293
2023/06/15 08:02:13.190, True, 0.331, 0.151064
2023/06/15 08:02:13.694, True, 0.664, 0.149538
2023/06/15 08:02:14.190, True, 0.337, 0.149157
2023/06/15 08:02:14.694, True, 0.662, 0.150835
2023/06/15 08:02:15.198, True, 0.332, 0.151675
2023/06/15 08:02:15.702, True, 0.331, 0.150835
2023/06/15 08:02:16.198, True, 0.674, 0.151064
2023/06/15 08:02:16.702, True, 0.332, 0.151369
2023/06/15 08:02:17.206, True, 0.664, 0.151598
2023/06/15 08:02:17.702, True, 0.337, 0.151522
2023/06/15 08:02:18.206, True, 0.663, 0.152972
2023/06/15 08:02:18.710, True, 0.331, 0.151217
2023/06/15 08:02:19.206, True, 0.674, 0.153964
2023/06/15 08:02:19.710, True, 0.332, 0.152361
2023/06/15 08:02:20.214, True, 0.331, 0.152514
2023/06/15 08:02:20.710, True, 0.674, 0.153124
2023/06/15 08:02:21.214, True, 0.331, 0.149767
2023/06/15 08:02:21.718, True, 0.663, 0.151675
2023/06/15 08:02:22.214, True, 0.337, 0.153964
2023/06/15 08:02:22.718, True, 0.332, 0.152438
2023/06/15 08:02:23.222, True, 0.663, 0.150225
2023/06/15 08:02:23.718, True, 0.337, 0.153048
2023/06/15 08:02:24.222, True, 0.331, 0.151675
2023/06/15 08:02:24.726, True, 0.663, 0.150225
2023/06/15 08:02:25.222, True, 0.337, 0.150454
2023/06/15 08:02:25.726, True, 0.663, 0.150912
2023/06/15 08:02:26.230, True, 0.332, 0.150225
2023/06/15 08:02:26.726, True, 0.337, 0.150988
2023/06/15 08:02:27.230, True, 0.663, 0.150149
2023/06/15 08:02:27.734, True, 0.332, 0.153964
2023/06/15 08:02:28.231, True, 0.674, 0.151522
2023/06/15 08:02:28.734, True, 0.332, 0.153582
2023/06/15 08:02:29.238, True, 0.663, 0.150912
2023/06/15 08:02:29.734, True, 0.337, 0.151522
2023/06/15 08:02:30.238, True, 0.332, 0.152438
2023/06/15 08:02:30.742, True, 0.663, 0.153811
2023/06/15 08:02:31.238, True, 0.337, 0.150225
2023/06/15 08:02:31.742, True, 0.332, 0.151904
2023/06/15 08:02:32.246, True, 0.663, 0.149767
2023/06/15 08:02:32.742, True, 0.337, 0.149538
2023/06/15 08:02:33.246, True, 0.332, 0.151064
2023/06/15 08:02:33.750, True, 0.663, 0.150683
2023/06/15 08:02:34.246, True, 0.337, 0.151064
2023/06/15 08:02:34.750, True, 0.663, 0.151064
2023/06/15 08:02:35.254, True, 0.332, 0.152438
2023/06/15 08:02:35.750, True, 0.674, 0.150912
2023/06/15 08:02:36.254, True, 0.332, 0.150988
2023/06/15 08:02:36.759, True, 0.663, 0.150988
2023/06/15 08:02:37.253, True, 0.337, 0.152438
2023/06/15 08:02:37.758, True, 0.332, 0.150378
2023/06/15 08:02:38.262, True, 0.663, 0.151293
2023/06/15 08:02:38.758, True, 0.337, 0.151217
2023/06/15 08:02:39.262, True, 0.332, 0.151369
2023/06/15 08:02:39.766, True, 0.663, 0.151980
2023/06/15 08:02:40.262, True, 0.337, 0.152667
2023/06/15 08:02:40.766, True, 0.663, 0.151904
2023/06/15 08:02:41.270, True, 0.332, 0.151675
2023/06/15 08:02:41.766, True, 0.337, 0.152819
2023/06/15 08:02:42.270, True, 0.663, 0.152056
2023/06/15 08:02:42.766, True, 0.337, 0.149996
2023/06/15 08:02:43.270, True, 0.663, 0.151598
2023/06/15 08:02:43.774, True, 0.332, 0.150607
2023/06/15 08:02:44.270, True, 0.337, 0.150454
2023/06/15 08:02:44.774, True, 0.663, 0.151522
2023/06/15 08:02:45.278, True, 0.332, 0.149615
2023/06/15 08:02:45.774, True, 0.337, 0.151904
2023/06/15 08:02:46.278, True, 0.663, 0.150759
2023/06/15 08:02:46.782, True, 0.332, 0.148623
2023/06/15 08:02:47.278, True, 0.674, 0.151827
2023/06/15 08:02:47.782, True, 0.332, 0.149538
2023/06/15 08:02:48.278, True, 0.674, 0.151827
2023/06/15 08:02:48.782, True, 0.332, 0.151522
2023/06/15 08:02:49.286, True, 0.332, 0.149691
2023/06/15 08:02:49.782, True, 0.674, 0.150759
2023/06/15 08:02:50.286, True, 0.332, 0.149996
2023/06/15 08:02:50.790, True, 0.331, 0.152285
2023/06/15 08:02:51.286, True, 0.674, 0.149233
2023/06/15 08:02:51.790, True, 0.332, 0.152743
2023/06/15 08:02:52.294, True, 0.332, 0.151293
2023/06/15 08:02:52.790, True, 0.674, 0.152209
2023/06/15 08:02:53.294, True, 0.332, 0.151369
2023/06/15 08:02:53.798, True, 0.663, 0.149996
2023/06/15 08:02:54.294, True, 0.337, 0.151675
2023/06/15 08:02:54.798, True, 0.332, 0.148852
2023/06/15 08:02:55.302, True, 0.663, 0.149920
2023/06/15 08:02:55.798, True, 0.337, 0.152667
2023/06/15 08:02:56.302, True, 0.663, 0.151751
2023/06/15 08:02:56.806, True, 0.332, 0.151217
2023/06/15 08:02:57.302, True, 0.337, 0.149386
2023/06/15 08:02:57.806, True, 0.663, 0.149996
2023/06/15 08:02:58.310, True, 0.332, 0.151064
2023/06/15 08:02:58.806, True, 0.674, 0.153658
2023/06/15 08:02:59.310, True, 0.332, 0.148928
2023/06/15 08:02:59.814, True, 0.663, 0.149844
2023/06/15 08:03:00.310, True, 0.337, 0.149081
2023/06/15 08:03:00.814, True, 0.332, 0.150149
2023/06/15 08:03:01.310, True, 0.337, 0.150454
2023/06/15 08:03:01.814, True, 0.663, 0.150149
2023/06/15 08:03:02.318, True, 0.331, 0.149844
2023/06/15 08:03:02.822, True, 0.663, 0.150683
2023/06/15 08:03:03.318, True, 0.337, 0.151064
2023/06/15 08:03:03.822, True, 0.331, 0.150454
2023/06/15 08:03:04.318, True, 0.674, 0.151598
2023/06/15 08:03:04.822, True, 0.332, 0.150301
2023/06/15 08:03:05.326, True, 0.663, 0.150225
2023/06/15 08:03:05.822, True, 0.337, 0.149996
2023/06/15 08:03:06.326, True, 0.332, 0.151904
2023/06/15 08:03:06.830, True, 0.663, 0.150607
2023/06/15 08:03:07.327, True, 0.337, 0.148852
2023/06/15 08:03:07.830, True, 0.663, 0.149691
2023/06/15 08:03:08.334, True, 0.332, 0.151598
2023/06/15 08:03:08.830, True, 0.337, 0.150530
2023/06/15 08:03:09.334, True, 0.663, 0.152743
2023/06/15 08:03:09.838, True, 0.332, 0.150378
2023/06/15 08:03:10.334, True, 0.336, 0.151064
2023/06/15 08:03:10.838, True, 0.663, 0.152819
2023/06/15 08:03:11.334, True, 0.337, 0.150149
2023/06/15 08:03:11.838, True, 0.664, 0.149996
2023/06/15 08:03:12.342, True, 0.331, 0.149538
2023/06/15 08:03:12.838, True, 0.337, 0.149615
2023/06/15 08:03:13.342, True, 0.663, 0.152132
2023/06/15 08:03:13.846, True, 0.332, 0.152056
2023/06/15 08:03:14.350, True, 0.332, 0.150683
2023/06/15 08:03:14.846, True, 0.674, 0.149310
2023/06/15 08:03:15.350, True, 0.332, 0.151293
2023/06/15 08:03:15.854, True, 0.663, 0.149767
2023/06/15 08:03:16.350, True, 0.337, 0.148470
2023/06/15 08:03:16.854, True, 0.332, 0.151675
2023/06/15 08:03:17.350, True, 0.674, 0.150988
2023/06/15 08:03:17.854, True, 0.332, 0.151446
2023/06/15 08:03:18.358, True, 0.332, 0.149538
2023/06/15 08:03:18.854, True, 0.674, 0.151446
2023/06/15 08:03:19.358, True, 0.332, 0.151598
2023/06/15 08:03:19.862, True, 0.664, 0.150301
2023/06/15 08:03:20.358, True, 0.336, 0.151827
2023/06/15 08:03:20.862, True, 0.332, 0.150225
2023/06/15 08:03:21.366, True, 0.663, 0.149767
2023/06/15 08:03:21.862, True, 0.337, 0.151598
2023/06/15 08:03:22.366, True, 0.663, 0.153277
2023/06/15 08:03:22.870, True, 0.332, 0.150835
2023/06/15 08:03:23.366, True, 0.337, 0.151217
2023/06/15 08:03:23.870, True, 0.663, 0.150607
2023/06/15 08:03:24.374, True, 0.332, 0.148394
2023/06/15 08:03:24.878, True, 0.331, 0.150683
2023/06/15 08:03:25.374, True, 0.674, 0.150607
2023/06/15 08:03:25.878, True, 0.332, 0.150988
2023/06/15 08:03:26.382, True, 0.663, 0.148928
2023/06/15 08:03:26.878, True, 0.337, 0.151522
2023/06/15 08:03:27.382, True, 0.331, 0.149081
2023/06/15 08:03:27.886, True, 0.663, 0.151293
2023/06/15 08:03:28.382, True, 0.337, 0.151980
2023/06/15 08:03:28.886, True, 0.332, 0.148394
2023/06/15 08:03:29.390, True, 0.663, 0.149844
2023/06/15 08:03:29.886, True, 0.337, 0.152438
2023/06/15 08:03:30.390, True, 0.332, 0.150149
2023/06/15 08:03:30.894, True, 0.664, 0.149615
2023/06/15 08:03:31.390, True, 0.337, 0.150912
2023/06/15 08:03:31.894, True, 0.662, 0.149462
2023/06/15 08:03:32.398, True, 0.332, 0.150072
2023/06/15 08:03:32.902, True, 0.663, 0.150988
2023/06/15 08:03:33.398, True, 0.337, 0.150912
2023/06/15 08:03:33.902, True, 0.331, 0.150072
2023/06/15 08:03:34.406, True, 0.663, 0.151064
2023/06/15 08:03:34.902, True, 0.337, 0.151141
2023/06/15 08:03:35.406, True, 0.663, 0.151598
2023/06/15 08:03:35.910, True, 0.332, 0.149157
2023/06/15 08:03:36.406, True, 0.337, 0.149386
2023/06/15 08:03:36.910, True, 0.332, 0.150607
2023/06/15 08:03:37.414, True, 0.663, 0.149920
2023/06/15 08:03:37.910, True, 0.337, 0.151751
2023/06/15 08:03:38.414, True, 0.331, 0.152667
2023/06/15 08:03:38.917, True, 0.663, 0.149310
2023/06/15 08:03:39.422, True, 0.332, 0.151904
2023/06/15 08:03:39.918, True, 0.674, 0.151598
2023/06/15 08:03:40.421, True, 0.332, 0.150149
2023/06/15 08:03:40.918, True, 0.337, 0.150835
2023/06/15 08:03:41.422, True, 0.662, 0.151751
2023/06/15 08:03:41.926, True, 0.332, 0.149920
2023/06/15 08:03:42.422, True, 0.674, 0.150454
2023/06/15 08:03:42.926, True, 0.331, 0.149920
2023/06/15 08:03:43.430, True, 0.332, 0.150301
2023/06/15 08:03:43.926, True, 0.674, 0.149920
2023/06/15 08:03:44.430, True, 0.331, 0.151827
2023/06/15 08:03:44.934, True, 0.332, 0.148547
2023/06/15 08:03:45.438, True, 0.663, 0.151141
2023/06/15 08:03:45.933, True, 0.336, 0.151827
2023/06/15 08:03:46.438, True, 0.332, 0.149462
2023/06/15 08:03:46.942, True, 0.663, 0.149920
2023/06/15 08:03:47.446, True, 0.332, 0.148470
2023/06/15 08:03:47.942, True, 0.674, 0.149462
2023/06/15 08:03:48.446, True, 0.331, 0.150301
2023/06/15 08:03:48.950, True, 0.664, 0.151751
2023/06/15 08:03:49.454, True, 0.332, 0.149386
2023/06/15 08:03:49.950, True, 0.337, 0.149920
2023/06/15 08:03:50.454, True, 0.663, 0.151141
2023/06/15 08:03:50.958, True, 0.331, 0.152590
2023/06/15 08:03:51.454, True, 0.338, 0.148852
2023/06/15 08:03:51.958, True, 0.663, 0.148318
2023/06/15 08:03:52.462, True, 0.331, 0.149996
2023/06/15 08:03:52.958, True, 0.337, 0.150530
2023/06/15 08:03:53.462, True, 0.663, 0.153048
2023/06/15 08:03:53.966, True, 0.332, 0.150072
2023/06/15 08:03:54.462, True, 0.337, 0.150835
2023/06/15 08:03:54.966, True, 0.663, 0.150378
2023/06/15 08:03:55.470, True, 0.331, 0.151751
2023/06/15 08:03:55.966, True, 0.674, 0.152438
2023/06/15 08:03:56.470, True, 0.332, 0.150835
2023/06/15 08:03:56.966, True, 0.337, 0.151293
2023/06/15 08:03:57.470, True, 0.663, 0.150149
2023/06/15 08:03:57.974, True, 0.332, 0.151446
2023/06/15 08:03:58.470, True, 0.337, 0.149081
2023/06/15 08:03:58.974, True, 0.664, 0.151217
2023/06/15 08:03:59.478, True, 0.331, 0.149996
2023/06/15 08:03:59.974, True, 0.674, 0.150912
2023/06/15 08:04:00.478, True, 0.332, 0.150149
2023/06/15 08:04:00.982, True, 0.663, 0.150683
2023/06/15 08:04:01.477, True, 0.337, 0.150378
2023/06/15 08:04:01.982, True, 0.332, 0.151675
2023/06/15 08:04:02.486, True, 0.663, 0.148165
2023/06/15 08:04:02.982, True, 0.337, 0.150072
2023/06/15 08:04:03.486, True, 0.332, 0.150835
2023/06/15 08:04:03.990, True, 0.663, 0.150378
2023/06/15 08:04:04.486, True, 0.337, 0.150912
2023/06/15 08:04:04.990, True, 0.664, 0.151522
2023/06/15 08:04:05.486, True, 0.337, 0.151751
2023/06/15 08:04:05.990, True, 0.663, 0.151446
2023/06/15 08:04:06.494, True, 0.332, 0.149615
2023/06/15 08:04:06.990, True, 0.674, 0.151141
2023/06/15 08:04:07.494, True, 0.332, 0.148013
2023/06/15 08:04:07.998, True, 0.663, 0.149462
2023/06/15 08:04:08.494, True, 0.338, 0.151904
2023/06/15 08:04:08.998, True, 0.331, 0.149233
2023/06/15 08:04:09.502, True, 0.663, 0.150530
2023/06/15 08:04:09.998, True, 0.337, 0.148928
2023/06/15 08:04:10.502, True, 0.663, 0.148470
2023/06/15 08:04:11.006, True, 0.332, 0.149920
2023/06/15 08:04:11.502, True, 0.337, 0.148852